Regional Weather Roundup
Issued by NWS

Home | Current Version | Previous Version | Text Only | Print | Product List | Glossary On
Versions: 1 2 3 4 5 6 7 8 9 10 11 12 13 14 15 16 17 18 19 20 21 22 23 24 25 26 27 28 29 30 31 32 33 34 35 36 37 38 39 40 41 42 43 44 45 46 47 48 49 50
000
ASUS44 KBMX 071010
RWRAL

ALABAMA REGIONAL WEATHER ROUNDUP
NATIONAL WEATHER SERVICE BIRMINGHAM AL
400 AM CST SUN FEB 07 2016

NOTE: "FAIR" INDICATES FEW OR NO CLOUDS BELOW 12,000 FEET
WITH NO SIGNIFICANT WEATHER AND/OR OBSTRUCTIONS TO VISIBILITY.

THE REMARK "TC" DENOTES TEMPERATURE IN DEGREES CELSIUS.

ALZ001>011-014-016>018-020-071100-
NORTH ALABAMA

CITY           SKY/WX    TMP DP  RH WIND       PRES   REMARKS
MUSCLE SHOALS  CLEAR     29  24  82 CALM      30.24F
HUNTSVILLE     CLEAR     30  26  85 CALM      30.21F
DECATUR        CLEAR     28  25  88 CALM      30.22F
HALEYVILLE     FAIR      25  24  96 CALM      30.23F
GADSDEN        CLEAR     26  23  88 CALM      30.21S
$$

ALZ012-013-022-023-030>036-040>044-071100-
WEST CENTRAL ALABAMA

CITY           SKY/WX    TMP DP  RH WIND       PRES   REMARKS
TUSCALOOSA     CLEAR     28  23  81 CALM      30.25F
$$

ALZ015-024>027-033>036-040>044-071100-
CENTRAL ALABAMA

CITY           SKY/WX    TMP DP  RH WIND       PRES   REMARKS
BIRMINGHAM     CLEAR     29  26  89 CALM      30.23S
MONTGOMERY     PTCLDY    33  24  69 NW8       30.21S WCI  26
SHELBY CO ARPT CLEAR     35  22  58 N5        30.20F WCI  31
MAXWELL AFB    PTCLDY    33  26  75 SW3       30.19S
GREENVILLE     NOT AVBL
$$

ALZ019-021-028-029-037-038-045>048-071100-
EAST CENTRAL ALABAMA

CITY           SKY/WX    TMP DP  RH WIND       PRES   REMARKS
ANNISTON       CLEAR     26  22  84 CALM      30.20S
ALEXANDER CITY CLEAR     28  27  94 CALM      30.18R
AUBURN         CLEAR     33  20  58 N6        30.16F WCI  28
$$

ALZ051>064-071100-
SOUTHWEST ALABAMA

CITY           SKY/WX    TMP DP  RH WIND       PRES   REMARKS
MOBILE         CLEAR     34  23  64 N3        30.23F
BROOKLEY FIELD CLEAR     36  24  62 NW8       30.25S WCI  30
EVERGREEN      PTCLDY    32  24  72 NW3       30.22S
$$

ALZ049-050-065>069-071100-
SOUTHEAST ALABAMA

CITY           SKY/WX    TMP DP  RH WIND       PRES   REMARKS
DOTHAN         CLEAR     34  27  75 NW7       30.18F WCI  28
OZARK          CLEAR     35  25  67 NW8       30.16F WCI  28
TROY           CLEAR     29  26  89 CALM      30.19F
EUFAULA        FAIR      29  24  82 CALM      30.15F
$$



USA.gov is the U.S. government's official web portal to all federal, state and local government web resources and services.